Lid_Strength_Index
3 3 4 4 4 4 4 4 4 4 3 3 3 3 3 3 4 6 8 5 5 3 3 7 7 6 7 8 7 8 12 14 13 11 10 8 9 6 5 6 8 6 5 4 2
3 3 4 4 4 4 4 4 4 4 4 3 3 3 3 3 6 7 3 2 3 2 5 5 6 6 10 10 9 11 13 12 9 9 10 8 8 7 7 7 7 6 4 3 3
3 3 3 4 4 4 4 4 4 4 4 4 4 3 3 4 8 7 1 2 2 3 4 5 6 7 10 9 10 10 12 9 8 7 7 8 8 6 7 8 7 7 5 4 4
3 3 4 4 4 4 4 4 4 4 4 4 4 3 3 6 11 6 1 2 2 3 5 6 7 9 10 11 9 11 8 8 8 7 7 8 7 7 7 7 5 6 4 4 4
3 3 4 4 4 4 4 4 4 4 4 4 4 3 5 8 7 2 1 1 2 3 5 6 7 8 9 8 7 9 8 7 7 7 7 6 7 8 7 6 5 5 4 4 4
3 3 4 4 4 4 4 4 4 4 4 4 4 3 6 10 3 2 2 3 3 5 4 4 5 5 7 7 8 7 7 6 6 7 7 7 7 7 6 6 6 5 5 6 4
3 3 4 4 4 4 5 5 5 4 4 4 3 4 7 8 4 3 4 5 3 2 3 3 4 7 7 8 6 7 9 7 7 7 8 7 8 8 6 6 7 6 6 5 4
3 4 4 4 5 5 5 4 4 4 4 3 3 5 9 3 4 5 4 2 1 1 2 4 5 7 8 7 8 10 10 12 8 7 7 7 11 8 6 7 7 6 6 5 4
3 4 4 4 4 5 4 4 4 3 3 3 5 6 8 3 5 3 2 2 2 2 3 2 5 7 7 10 13 11 14 12 10 7 7 8 10 7 6 6 7 7 6 6 4
3 4 4 4 4 4 5 5 4 4 3 3 4 7 6 6 3 2 1 2 3 4 5 5 7 9 10 12 16 13 13 11 11 9 8 9 9 7 6 7 7 7 6 6 5
4 4 4 4 4 4 5 6 8 8 6 7 7 6 5 3 1 2 1 3 3 5 9 7 10 13 10 9 9 10 11 12 10 8 9 10 9 8 6 7 7 8 7 7 7
4 4 4 4 4 5 6 6 7 7 9 5 5 5 3 2 5 4 2 6 7 10 8 10 12 9 8 8 10 11 12 12 9 8 9 10 11 8 7 7 6 7 7 7 7
4 4 4 4 4 6 5 4 4 4 9 6 4 5 5 4 5 5 4 5 8 10 10 12 10 7 9 10 11 11 12 12 11 9 8 10 12 10 7 7 6 6 7 6 7
5 4 4 4 6 5 7 5 2 3 12 9 8 7 5 4 6 3 3 5 8 10 10 11 7 9 10 12 11 15 9 10 12 13 15 10 18 12 9 8 7 7 7 7 6
5 4 4 5 6 6 6 4 3 4 19 8 8 4 4 6 6 6 2 5 9 10 10 12 10 11 12 11 10 12 9 11 11 14 14 13 16 14 9 10 8 7 7 6 6
5 4 5 5 6 5 4 3 3 13 18 10 8 8 7 6 6 5 5 5 5 9 9 10 7 8 10 8 8 9 11 11 12 14 19 14 15 15 12 10 9 8 7 6 6
5 4 6 5 7 5 4 5 13 17 10 11 11 8 8 8 7 7 8 10 12 15 14 11 10 8 7 11 9 10 14 19 20 20 20 12 15 14 10 8 7 8 7 6 6
5 5 4 3 3 5 6 9 16 12 12 9 9 9 9 8 8 8 9 12 9 11 14 15 17 10 8 10 12 12 14 19 23 21 19 13 15 12 8 7 6 6 7 7 7
6 3 2 4 5 5 8 15 14 12 10 10 10 11 10 8 8 9 10 11 10 10 15 16 15 8 8 8 9 13 16 11 17 15 19 16 12 9 7 7 7 6 7 7 7
7 4 3 3 2 5 10 12 11 8 8 9 13 11 12 10 10 10 10 9 10 8 8 12 17 10 8 7 9 11 10 17 16 22 23 18 15 13 10 9 7 8 7 6 6
5 5 4 2 3 7 13 12 9 7 7 10 11 11 10 11 10 10 10 9 8 9 8 10 13 13 10 11 13 13 14 14 14 16 21 22 17 11 12 10 10 7 6 6 6
6 8 4 3 8 9 11 10 9 8 7 8 9 10 10 9 10 10 11 9 7 8 11 10 12 16 14 9 8 10 13 13 18 19 17 18 18 10 9 9 8 7 7 5 5
8 6 4 4 11 11 9 9 8 9 9 9 10 9 8 10 12 10 9 6 6 8 11 10 14 18 16 12 10 12 12 12 13 14 17 20 18 9 9 9 8 7 7 6 5
7 10 7 7 7 8 9 10 11 8 9 8 9 8 9 10 8 10 9 7 7 8 7 8 13 15 19 16 12 14 12 12 13 17 17 17 15 12 11 11 9 9 6 6 5
6 9 8 12 10 9 8 9 12 12 9 8 9 9 10 12 11 11 9 9 7 7 7 9 15 12 12 11 11 13 13 12 13 13 16 15 15 13 11 10 9 8 8 7 7
8 10 9 10 8 8 9 10 11 11 10 10 10 9 9 11 11 12 10 10 10 8 10 9 14 12 14 11 11 12 12 12 12 12 13 13 14 9 9 9 9 8 8 8 7
6 6 9 9 9 11 10 9 11 10 8 8 9 9 10 9 7 7 7 7 8 10 11 12 12 14 17 12 13 16 13 13 12 11 11 15 12 9 10 10 11 10 9 8 7